INTELSAT NEW DAWN (37392 NORAD) Tracking and Keplerian Element Data

This shows tracking and keplerian element data for the satellite.

Feedback or suggestion? Click here.




ElementValue
Catalog37392
NameINTELSAT NEW DAWN
Epoch Orbit2803
Epoch Day349.10525362
Epoch Year2018
RAAN241.931
Inclination0.029
Eccentricity0.0001121
Argument of Perigee349.1533
Mean Anonmoly283.3219
Mean Motion1.00272499
Decay Rate1.67E-06
L11 37392U 11016A 18349.10525362 .00000167 00000-0 00000+0 0 9995
L22 37392 0.0290 241.9310 0001121 349.1533 283.3219 1.00272499 28035

Live tracking and technical data element details for INTELSAT NEW DAWN (NORAD 37392). INTELSAT NEW DAWN can be tracked NOW for your location showing map with azimuth and elevation plus other details from your city location.

Track the satellite on the map from your city or location and see movement details for azimuth, elevation, latitude, longitude, range, height, and movement on the map or in text.







IsCatalogInMostPopularTable: catalog: 37392, numindb: 56
Update: records affected: 1



GetName: 37392 INTELSAT NEW DAWN

Hit Count: updated at: Sun, 16 Dec 2018 10:57:07 GMT